Location: Barnston
(51.8500°N, 0.4000°E)
Time: 05:26:03
(UTC+00:00)

USA 281 - Pass Details

Date: 26 September 2023
Orbit: 1077 x 1081 km, 106.0° (Epoch: 19 November)

Event Time Altitude Azimuth Distance (km) Brightness Sun altitude
Rises 01:37:27 0° 29° (NNE) 3,893 7.2 -34.5°
Reaches altitude 10° 01:40:07 10° 36° (NE) 2,933 6.3 -34.2°
Enters shadow 01:46:24 46° 108° (ESE) 1,428 3.8 -33.7°
